Location: Bacea
(45.9500°N, 22.6667°E)
Time: 22:08:36
(UTC+00:00)

Cosmos 1758 - Pass Details

Date: 16 October 2021
Orbit: 539 x 560 km, 82.5° (Epoch: 29 November)

Event Time Altitude Azimuth Distance (km) Brightness Sun altitude
Rises 16:25:49 0° 186° (S) 2,705 7.0 -8.5°
Reaches altitude 10° 16:27:58 10° 185° (S) 1,814 6.1 -8.8°
Maximum altitude 16:31:58 84° 97° (E) 555 3.2 -9.5°
Drops below altitude 10° 16:35:58 10° 10° (N) 1,819 5.8 -10.2°
Sets 16:38:07 0° 10° (N) 2,714 6.7 -10.6°
